KB1GNF Weather Reports


Display with metric or nautical units.
time (UTC)temp
F
wind
direction
speed
MPH
gust
MPH
rain 1hr
in
rain 24hr
in
rain mn
in
humidity
%
barometer
mb
20260901125010 65 351 0.0 0.0 0.01 0.14 0.14 97 1017.9
20260901124522 65 351 0.0 0.0 0.01 0.14 0.14 97 1017.9
20260901124011 65 351 0.0 0.0 0.02 0.14 0.14 97 1018.0
20260901123510 65 359 0.0 0.0 0.04 0.14 0.14 97 1017.9
20260901123038 65 346 0.0 0.0 0.04 0.13 0.13 97 1017.8
20260901122512 65 346 0.0 0.0 0.04 0.13 0.13 97 1017.7
20260901122014 65 357 0.0 0.0 0.05 0.13 0.13 97 1017.6
20260901121528 65 357 0.0 0.0 0.06 0.13 0.13 97 1017.5
20260901121015 65 357 0.0 0.0 0.08 0.13 0.13 97 1017.6
20260901120515 65 357 0.0 0.0 0.09 0.13 0.13 97 1017.7
20260901120044 65 357 0.0 0.0 0.10 0.13 0.13 97 1017.7
20260901115516 65 354 0.0 2.0 0.10 0.13 0.13 97 1017.6
20260901115016 65 349 0.0 3.0 0.10 0.13 0.13 97 1017.7
20260901114538 65 349 1.0 3.0 0.10 0.13 0.13 97 1017.8
20260901114008 65 327 0.0 0.0 0.10 0.12 0.12 97 1017.8
20260901113508 65 164 0.0 0.0 0.09 0.10 0.10 97 1017.8
20260901113027 65 164 0.0 0.0 0.08 0.09 0.09 97 1017.6
20260901112512 65 163 0.0 0.0 0.08 0.09 0.09 96 1017.4
20260901112011 65 163 0.0 0.0 0.07 0.08 0.08 96 1017.1
20260901111531 65 164 0.0 0.0 0.06 0.07 0.07 96 1017.5
20260901111011 65 164 0.0 0.0 0.04 0.05 0.05 96 1017.2
20260901110511 65 164 0.0 0.0 0.03 0.04 0.04 96 1017.0
20260901110028 65 164 0.0 0.0 0.02 0.03 0.03 96 1017.2
20260901105517 65 164 0.0 0.0 0.02 0.03 0.03 96 1017.4
20260901105014 65 163 0.0 0.0 0.02 0.03 0.03 96 1017.4
20260901104533 65 164 0.0 0.0 0.03 0.03 0.03 96 1017.4
20260901104018 65 164 0.0 0.0 0.02 0.02 0.02 96 1017.3
20260901103516 65 164 0.0 0.0 0.01 0.01 0.01 96 1017.2
20260901103034 65 164 0.0 0.0 0.01 0.01 0.01 96 1017.0
20260901102507 65 164 0.0 0.0 0.01 0.01 0.01 96 1017.2
20260901102009 65 164 0.0 0.0 0.01 0.01 0.01 96 1017.3
20260901101524 65 164 0.0 0.0 0.01 0.01 0.01 95 1017.2
20260901101003 65 164 0.0 0.0 0.01 0.01 0.01 95 1017.0
20260901100503 65 164 0.0 0.0 0.01 0.01 0.01 95 1016.8
20260901100003 65 164 0.0 0.0 0.01 0.01 0.01 95 1016.8
20260901095504 65 163 0.0 0.0 0.01 0.01 0.01 95 1016.7
20260901095004 65 164 0.0 0.0 0.01 0.01 0.01 95 1016.8
20260901094513 65 163 0.0 0.0 0.00 0.00 0.00 95 1016.7
20260901094005 65 163 0.0 0.0 0.00 0.00 0.00 95 1016.8
20260901093504 65 163 0.0 0.0 0.00 0.00 0.00 95 1017.0
20260901093014 65 163 0.0 0.0 0.00 0.00 0.00 95 1017.1
20260901092506 65 163 0.0 0.0 0.00 0.00 0.00 95 1017.2
20260901092008 65 163 0.0 0.0 0.00 0.00 0.00 95 1017.1
20260901091525 65 163 0.0 0.0 0.00 0.00 0.00 95 1017.1
20260901091009 65 163 0.0 0.0 0.00 0.00 0.00 95 1017.1
20260901090509 65 163 0.0 0.0 0.00 0.00 0.00 95 1017.0
20260901090025 65 163 0.0 0.0 0.00 0.00 0.00 95 1017.1
20260901085511 65 164 0.0 0.0 0.00 0.00 0.00 95 1017.1
20260901085008 65 164 0.0 0.0 0.00 0.00 0.00 95 1017.2
20260901084508 65 164 0.0 0.0 0.00 0.00 0.00 95 1017.2
20260901084003 65 164 0.0 0.0 0.00 0.00 0.00 95 1017.2
20260901083505 65 164 0.0 0.0 0.00 0.00 0.00 95 1017.2
20260901083012 65 164 0.0 0.0 0.00 0.00 0.00 95 1017.2
20260901082506 65 164 0.0 0.0 0.00 0.00 0.00 95 1017.2
20260901082006 65 164 0.0 0.0 0.00 0.00 0.00 95 1017.2
20260901081517 65 164 0.0 0.0 0.00 0.00 0.00 95 1017.2
20260901081008 65 164 0.0 0.0 0.00 0.00 0.00 95 1017.0
20260901080509 65 164 0.0 0.0 0.00 0.00 0.00 95 1017.0
20260901080024 65 164 0.0 0.0 0.00 0.00 0.00 95 1017.1
20260901075510 65 164 0.0 1.0 0.00 0.00 0.00 94 1016.8
20260901075012 65 164 0.0 2.0 0.00 0.00 0.00 94 1016.7
20260901074528 65 206 1.0 3.0 0.00 0.00 0.00 94 1017.0
20260901074013 65 217 2.0 3.0 0.00 0.00 0.00 94 1017.2
20260901073504 65 210 1.0 4.0 0.00 0.00 0.00 93 1017.4
20260901073013 65 217 2.0 6.0 0.00 0.00 0.00 93 1017.3
20260901072506 65 202 3.0 6.0 0.00 0.00 0.00 93 1017.4
20260901072007 65 195 1.0 3.0 0.00 0.00 0.00 92 1017.4
20260901071513 65 204 0.0 1.0 0.00 0.00 0.00 92 1017.5
20260901071006 66 167 0.0 2.0 0.00 0.00 0.00 92 1017.7
20260901070508 66 207 0.0 3.0 0.00 0.00 0.00 92 1017.8
20260901070021 66 170 1.0 4.0 0.00 0.00 0.00 91 1017.8
20260901065514 66 150 2.0 4.0 0.00 0.00 0.00 91 1017.9
20260901065011 66 210 2.0 4.0 0.00 0.00 0.00 91 1017.8
20260901064528 66 205 3.0 4.0 0.00 0.00 0.00 90 1017.9
20260901064016 66 162 1.0 4.0 0.00 0.00 0.00 90 1017.9
20260901063515 66 221 1.0 4.0 0.00 0.00 0.00 89 1017.9
20260901063036 66 186 1.0 5.0 0.00 0.00 0.00 89 1017.9
20260901062517 67 191 3.0 5.0 0.00 0.00 0.00 88 1017.9
20260901062004 67 205 0.0 3.0 0.00 0.00 0.00 88 1017.9
20260901061518 67 243 0.0 3.0 0.00 0.00 0.00 88 1017.9
20260901061007 67 229 1.0 3.0 0.00 0.00 0.00 88 1017.9
20260901060506 67 244 1.0 3.0 0.00 0.00 0.00 87 1017.8
20260901060015 67 239 0.0 3.0 0.00 0.00 0.00 87 1017.8
20260901055510 67 248 0.0 3.0 0.00 0.00 0.00 86 1017.8
20260901055010 67 206 1.0 3.0 0.00 0.00 0.00 86 1017.9
20260901054526 67 226 0.0 1.0 0.00 0.00 0.00 86 1018.0
20260901054012 67 226 0.0 0.0 0.00 0.00 0.00 86 1018.1
20260901053516 68 226 0.0 2.0 0.00 0.00 0.00 86 1018.1
20260901053028 68 226 0.0 2.0 0.00 0.00 0.00 85 1018.1
20260901052512 68 223 0.0 1.0 0.00 0.00 0.00 85 1018.0
20260901052015 68 248 0.0 3.0 0.00 0.00 0.00 85 1018.0
20260901051540 68 212 0.0 3.0 0.00 0.00 0.00 85 1018.0
20260901051016 67 230 0.0 2.0 0.00 0.00 0.00 86 1018.0
20260901050516 67 228 0.0 2.0 0.00 0.00 0.00 86 1017.9
20260901050013 67 248 0.0 2.0 0.00 0.00 0.00 86 1018.0
20260901045509 67 229 1.0 2.0 0.00 0.00 0.00 87 1018.0
20260901045009 66 234 0.0 1.0 0.00 0.00 0.00 89 1018.0
20260901044521 66 234 0.0 1.0 0.00 0.00 0.00 89 1017.8
20260901044011 66 202 0.0 1.0 0.00 0.00 0.00 89 1017.9
20260901043512 66 233 0.0 0.0 0.00 0.00 0.00 89 1018.1
20260901043033 66 233 0.0 0.0 0.00 0.00 0.00 88 1018.0
20260901042513 66 233 0.0 0.0 0.00 0.00 0.00 88 1018.0
20260901042012 66 233 0.0 0.0 0.00 0.00 0.00 88 1018.0
20260901041529 66 233 0.0 0.0 0.00 0.00 0.00 88 1018.0
20260901041013 66 233 0.0 0.0 0.00 0.00 0.00 89 1018.0
20260901040518 66 233 0.0 0.0 0.00 0.00 0.00 88 1017.8
20260901040034 66 233 0.0 0.0 0.00 0.00 0.00 88 1017.9
20260901035515 66 233 0.0 0.0 0.00 0.00 0.00 88 1018.0
20260901035015 66 233 0.0 0.0 0.00 0.00 0.00 88 1018.0
20260901034514 66 233 0.0 0.0 0.00 0.00 0.00 88 1018.0
20260901034008 67 233 0.0 0.0 0.00 0.00 0.00 88 1017.9
20260901033510 67 233 0.0 0.0 0.00 0.00 0.00 88 1018.0
20260901033022 67 233 0.0 0.0 0.00 0.00 0.00 88 1018.1
20260901032512 67 233 0.0 0.0 0.00 0.00 0.00 87 1018.2
20260901032012 67 233 0.0 0.0 0.00 0.00 0.00 87 1018.3
20260901031529 67 233 0.0 0.0 0.00 0.00 0.00 87 1018.3
20260901031013 67 233 0.0 0.0 0.00 0.00 0.00 87 1018.2
20260901030513 67 233 0.0 1.0 0.00 0.00 0.00 87 1018.2
20260901030030 67 233 0.0 1.0 0.00 0.00 0.00 87 1018.2
20260901025514 67 233 0.0 0.0 0.00 0.00 0.00 88 1018.4
20260901025014 67 233 0.0 0.0 0.00 0.00 0.00 87 1018.3
20260901024533 67 233 0.0 0.0 0.00 0.00 0.00 87 1018.4
20260901024022 67 233 0.0 0.0 0.00 0.00 0.00 87 1018.4
20260901023518 67 233 0.0 0.0 0.00 0.00 0.00 87 1018.3
20260901023031 67 233 0.0 0.0 0.00 0.00 0.00 86 1018.3
20260901022514 68 233 0.0 0.0 0.00 0.00 0.00 86 1018.2
20260901022010 68 233 0.0 0.0 0.00 0.00 0.00 86 1018.2
20260901021527 68 233 0.0 0.0 0.00 0.00 0.00 86 1018.2
20260901021014 68 233 0.0 0.0 0.00 0.00 0.00 86 1018.1
20260901020511 68 233 0.0 0.0 0.00 0.00 0.00 86 1018.1
20260901020030 68 233 0.0 0.0 0.00 0.00 0.00 85 1018.1
20260901015514 68 233 0.0 0.0 0.00 0.00 0.00 85 1018.2
20260901015015 68 233 0.0 0.0 0.00 0.00 0.00 86 1018.1
20260901014532 68 233 0.0 0.0 0.00 0.00 0.00 86 1018.1
20260901014016 68 233 0.0 0.0 0.00 0.00 0.00 85 1018.1
20260901013515 68 233 0.0 0.0 0.00 0.00 0.00 84 1018.1
20260901013031 68 233 0.0 0.0 0.00 0.00 0.00 84 1018.0
20260901012519 69 233 0.0 0.0 0.00 0.00 0.00 84 1018.1
20260901012018 69 231 0.0 0.0 0.00 0.00 0.00 84 1018.1
20260901011532 69 232 0.0 0.0 0.00 0.00 0.00 84 1018.2
20260901011002 69 231 0.0 1.0 0.00 0.00 0.00 83 1018.3
20260901010504 69 232 0.0 1.0 0.00 0.00 0.00 83 1018.2
20260901010004 69 162 0.0 0.0 0.00 0.00 0.00 83 1018.3
20260901005502 69 162 0.0 2.0 0.00 0.00 0.00 82 1018.3
20260901005002 70 162 0.0 2.0 0.00 0.00 0.00 82 1018.4
20260901004502 70 220 0.0 0.0 0.00 0.00 0.00 82 1018.3
20260901004003 70 137 0.0 1.0 0.00 0.00 0.00 81 1018.3
20260901003506 70 196 0.0 3.0 0.00 0.00 0.00 80 1018.4
20260901003005 70 189 1.0 3.0 0.00 0.00 0.00 80 1018.3
20260901002503 70 184 1.0 1.0 0.00 0.00 0.00 80 1018.3
20260901002003 70 205 0.0 2.0 0.00 0.00 0.00 80 1018.3
20260901001504 70 204 1.0 2.0 0.00 0.00 0.00 79 1018.3
20260901001002 70 217 0.0 1.0 0.00 0.00 0.00 79 1018.2
20260901000502 70 235 0.0 3.0 0.00 0.00 0.00 79 1018.2
20260901000004 71 231 1.0 3.0 0.00 0.00 0.00 79 1018.1
20260831235502 70 191 1.0 3.0 0.00 0.00 0.00 79 1018.1
20260831235004 70 213 1.0 3.0 0.00 0.00 0.00 80 1018.1
20260831234506 70 211 1.0 3.0 0.00 0.00 0.00 80 1018.2
20260831234003 70 205 0.0 2.0 0.00 0.00 0.00 81 1018.2
20260831233504 70 219 1.0 2.0 0.00 0.00 0.00 81 1018.2
20260831233005 70 229 0.0 0.0 0.00 0.00 0.00 81 1018.3
20260831232502 70 217 0.0 0.0 0.00 0.00 0.00 81 1018.3
20260831232003 70 224 0.0 0.0 0.00 0.00 0.00 81 1018.4
20260831231503 70 243 0.0 0.0 0.00 0.00 0.00 80 1018.5
20260831231004 70 214 0.0 0.0 0.00 0.00 0.00 81 1018.5
20260831230504 71 214 0.0 0.0 0.00 0.00 0.00 80 1018.6
20260831230006 71 214 0.0 0.0 0.00 0.00 0.00 80 1018.6
20260831225502 72 184 0.0 0.0 0.00 0.00 0.00 79 1018.7
20260831225002 72 176 0.0 0.0 0.00 0.00 0.00 80 1018.7
20260831224504 72 162 0.0 0.0 0.00 0.00 0.00 79 1018.7
20260831224004 72 162 0.0 0.0 0.00 0.00 0.00 78 1018.7
20260831223504 73 162 0.0 0.0 0.00 0.00 0.00 78 1018.7
20260831223006 73 162 0.0 0.0 0.00 0.00 0.00 76 1018.7
20260831222504 73 162 0.0 0.0 0.00 0.00 0.00 76 1018.7
20260831222003 73 182 0.0 0.0 0.00 0.00 0.00 76 1018.7
20260831221503 73 182 0.0 0.0 0.00 0.00 0.00 75 1018.7
20260831221003 73 182 0.0 0.0 0.00 0.00 0.00 74 1018.7
20260831220503 73 182 0.0 0.0 0.00 0.00 0.00 73 1018.6
20260831220007 73 182 0.0 0.0 0.00 0.00 0.00 73 1018.6
20260831215504 74 148 0.0 0.0 0.00 0.00 0.00 72 1018.6
20260831215005 74 208 0.0 0.0 0.00 0.00 0.00 72 1018.5
20260831214504 74 208 0.0 0.0 0.00 0.00 0.00 72 1018.4
20260831214004 74 208 0.0 1.0 0.00 0.00 0.00 71 1018.5
20260831213503 74 193 0.0 1.0 0.00 0.00 0.00 70 1018.5
20260831213004 74 214 0.0 2.0 0.00 0.00 0.00 71 1018.5
20260831212506 74 244 0.0 6.0 0.00 0.00 0.00 70 1018.4
20260831212004 74 205 2.0 6.0 0.00 0.00 0.00 70 1018.3
20260831211507 75 219 2.0 4.0 0.00 0.00 0.00 71 1018.2
20260831211004 75 179 1.0 7.0 0.00 0.00 0.00 71 1018.3
20260831210502 75 217 3.0 7.0 0.00 0.00 0.00 70 1018.3
20260831210006 75 210 2.0 6.0 0.00 0.00 0.00 70 1018.4
20260831205502 75 198 3.0 6.0 0.00 0.00 0.00 69 1018.4
20260831205002 75 135 2.0 7.0 0.00 0.00 0.00 69 1018.3
20260831204509 76 225 2.0 7.0 0.00 0.00 0.00 68 1018.4
20260831204006 76 211 2.0 6.0 0.00 0.00 0.00 67 1018.5
20260831203503 76 223 3.0 6.0 0.00 0.00 0.00 67 1018.5
20260831203007 76 248 2.0 7.0 0.00 0.00 0.00 68 1018.4
20260831202503 76 203 5.0 7.0 0.00 0.00 0.00 65 1018.5
20260831202003 76 187 2.0 8.0 0.00 0.00 0.00 65 1018.5
20260831201509 76 183 3.0 8.0 0.00 0.00 0.00 66 1018.5
20260831201007 76 221 5.0 9.0 0.00 0.00 0.00 65 1018.5
20260831200504 77 205 5.0 9.0 0.00 0.00 0.00 64 1018.6
20260831200020 77 200 2.0 8.0 0.00 0.00 0.00 65 1018.6
20260831195504 77 218 3.0 12.0 0.00 0.00 0.00 64 1018.7
20260831195003 77 240 5.0 12.0 0.00 0.00 0.00 63 1018.8
20260831194508 77 233 3.0 7.0 0.00 0.00 0.00 63 1018.9
20260831194004 77 228 2.0 7.0 0.00 0.00 0.00 65 1018.9
20260831193506 77 255 2.0 5.0 0.00 0.00 0.00 62 1018.9
20260831193010 77 198 2.0 5.0 0.00 0.00 0.00 63 1018.9
20260831192504 77 207 1.0 5.0 0.00 0.00 0.00 62 1018.9
20260831192004 77 165 3.0 5.0 0.00 0.00 0.00 61 1018.9
20260831191509 77 214 3.0 6.0 0.00 0.00 0.00 62 1018.9
20260831191008 77 170 3.0 7.0 0.00 0.00 0.00 62 1019.0
20260831190504 77 176 2.0 7.0 0.00 0.00 0.00 61 1019.2
20260831190009 77 141 3.0 7.0 0.00 0.00 0.00 61 1019.3
20260831185504 77 231 4.0 5.0 0.00 0.00 0.00 60 1019.3
20260831185003 78 179 3.0 5.0 0.00 0.00 0.00 60 1019.5
20260831184510 77 162 2.0 6.0 0.00 0.00 0.00 61 1019.5
20260831184006 77 247 2.0 8.0 0.00 0.00 0.00 58 1019.4
20260831183506 77 215 4.0 8.0 0.00 0.00 0.00 58 1019.4
20260831183012 78 162 2.0 9.0 0.00 0.00 0.00 59 1019.5
20260831182504 78 198 4.0 9.0 0.00 0.00 0.00 57 1019.5
20260831182004 78 213 5.0 9.0 0.00 0.00 0.00 59 1019.5
20260831181512 78 243 2.0 7.0 0.00 0.00 0.00 61 1019.7
20260831181004 77 170 2.0 7.0 0.00 0.00 0.00 60 1019.6
20260831180503 78 226 3.0 7.0 0.00 0.00 0.00 59 1019.5
20260831180015 78 243 3.0 7.0 0.00 0.00 0.00 60 1019.5
20260831175503 78 188 2.0 6.0 0.00 0.00 0.00 60 1019.6
20260831175007 78 84 1.0 5.0 0.00 0.00 0.00 61 1019.7
20260831174521 77 155 2.0 5.0 0.00 0.00 0.00 61 1019.8
20260831174007 77 229 3.0 5.0 0.00 0.00 0.00 61 1020.0
20260831173503 77 208 2.0 4.0 0.00 0.00 0.00 59 1020.0
20260831173012 77 89 3.0 5.0 0.00 0.00 0.00 57 1020.0
20260831172507 77 101 2.0 5.0 0.00 0.00 0.00 57 1020.1
20260831172010 77 176 1.0 8.0 0.00 0.00 0.00 60 1020.1
20260831171517 76 288 1.0 8.0 0.00 0.00 0.00 61 1020.1
20260831171010 77 226 3.0 6.0 0.00 0.00 0.00 61 1020.1
20260831170505 77 90 0.0 5.0 0.00 0.00 0.00 62 1020.2
20260831170014 76 174 3.0 7.0 0.00 0.00 0.00 59 1020.2
20260831165508 77 135 4.0 7.0 0.00 0.00 0.00 59 1020.3
20260831165006 77 203 2.0 7.0 0.00 0.00 0.00 58 1020.4
20260831164514 77 119 1.0 4.0 0.00 0.00 0.00 57 1020.4
20260831164008 76 143 0.0 6.0 0.00 0.00 0.00 57 1020.4
20260831163508 77 153 3.0 6.0 0.00 0.00 0.00 56 1020.4
20260831163010 77 177 1.0 5.0 0.00 0.00 0.00 57 1020.5
20260831162508 77 236 3.0 5.0 0.00 0.00 0.00 54 1020.7
20260831162005 77 196 3.0 5.0 0.00 0.00 0.00 58 1020.7
20260831161523 78 224 2.0 5.0 0.00 0.00 0.00 57 1020.8
20260831161012 78 169 0.0 4.0 0.00 0.00 0.00 60 1020.7
20260831160506 78 266 0.0 2.0 0.00 0.00 0.00 60 1020.7
20260831160020 76 241 0.0 3.0 0.00 0.00 0.00 60 1020.8
20260831155502 76 229 1.0 4.0 0.00 0.00 0.00 60 1020.8
20260831155004 76 236 2.0 5.0 0.00 0.00 0.00 61 1020.9
20260831154519 76 196 2.0 6.0 0.00 0.00 0.00 62 1020.9
20260831154004 75 225 2.0 6.0 0.00 0.00 0.00 62 1020.9
20260831153503 76 225 1.0 3.0 0.00 0.00 0.00 64 1020.9
20260831153011 76 354 0.0 3.0 0.00 0.00 0.00 67 1020.8
20260831152503 75 262 0.0 3.0 0.00 0.00 0.00 67 1021.0
20260831152006 73 101 1.0 6.0 0.00 0.00 0.00 65 1020.9
20260831151512 73 54 1.0 6.0 0.00 0.00 0.00 68 1020.8
20260831151007 74 96 4.0 6.0 0.00 0.00 0.00 69 1020.9
20260831150508 76 136 2.0 5.0 0.00 0.00 0.00 67 1020.9
20260831150020 76 216 1.0 4.0 0.00 0.00 0.00 67 1021.0
20260831145502 75 241 1.0 5.0 0.00 0.00 0.00 68 1020.9
20260831145002 75 179 2.0 5.0 0.00 0.00 0.00 67 1021.0
20260831144504 75 217 0.0 2.0 0.00 0.00 0.00 69 1021.1
20260831144004 73 3 0.0 2.0 0.00 0.00 0.00 70 1021.0
20260831143504 73 144 1.0 3.0 0.00 0.00 0.00 70 1021.3
20260831143013 73 345 0.0 4.0 0.00 0.00 0.00 71 1021.1
20260831142508 72 59 1.0 4.0 0.00 0.00 0.00 74 1021.1
20260831142005 72 84 2.0 4.0 0.00 0.00 0.00 72 1021.0
20260831141529 71 75 1.0 3.0 0.00 0.00 0.00 72 1021.0
20260831141007 71 75 1.0 2.0 0.00 0.00 0.00 74 1021.1
20260831140506 70 312 0.0 2.0 0.00 0.00 0.00 76 1021.3
20260831140035 69 18 0.0 2.0 0.00 0.00 0.00 79 1021.4
20260831135509 69 100 1.0 2.0 0.00 0.00 0.00 79 1021.4
20260831135008 68 110 0.0 3.0 0.00 0.00 0.00 82 1021.4
20260831134531 68 77 0.0 3.0 0.00 0.00 0.00 82 1021.4
20260831134012 68 72 1.0 3.0 0.00 0.00 0.00 84 1021.3
20260831133504 67 155 0.0 3.0 0.00 0.00 0.00 88 1021.3
20260831133007 66 64 0.0 3.0 0.00 0.00 0.00 90 1021.1
20260831132505 65 27 0.0 1.0 0.00 0.00 0.00 92 1021.1
20260831132005 64 93 0.0 0.0 0.00 0.00 0.00 95 1021.1
20260831131511 64 65 0.0 0.0 0.00 0.00 0.00 97 1021.2
20260831131005 63 203 0.0 0.0 0.00 0.00 0.00 97 1021.2
20260831130506 62 141 0.0 0.0 0.00 0.00 0.00 97 1021.1
20260831130012 61 123 0.0 1.0 0.00 0.00 0.00 97 1021.1
20260831125511 61 84 0.0 2.0 0.00 0.00 0.00 97 1021.1